Regional Weather Roundup
Issued by NWS State College, PA

Home | Current Version | Previous Version | Text Only | Print | Product List | Glossary On
Versions: 1 2 3 4 5 6 7 8 9 10 11 12 13 14 15 16 17 18 19 20 21 22 23 24 25 26 27 28 29 30 31 32 33 34 35 36 37 38 39 40 41 42 43 44 45 46 47 48 49 50
000
ASUS41 KCTP 201910
RWRCTP

REGIONAL WEATHER ROUNDUP
NATIONAL WEATHER SERVICE STATE COLLEGE PA
300 PM EDT FRI APR 20 2018

Note: "fair" indicates few or no clouds below 12,000 feet with no
significant weather and/or obstructions to visibility.

* = STATION THAT DOES NOT REPORT PRECIPITATION /E.G. RAIN...SNOW...ETC/
    THUNDER OR FOG.

PAZ002>004-007>009-013>016-020>023-029>032-202000-
WESTERN PENNSYLVANIA

CITY           SKY/WX    TMP DP  RH WIND       PRES   REMARKS
ERIE           FAIR      44  27  51 W14       30.44S
MEADVILLE      FAIR      45  27  49 W9        30.40R
FRANKLIN*      FAIR      46  23  40 NW7G17    30.38S
NEW CASTLE     FAIR      49  23  36 N14G20    30.41S
BEAVER COUNTY  SUNNY     50  19  29 NW9G17    30.40S
BUTLER*        FAIR      49  23  36 NW10G21   30.39S
PITTSBURGH INT FAIR      52  22  30 W13G23    30.38F
PITTSBURGH     FAIR      50  24  36 NW9G26    30.38R
INDIANA*       SUNNY     50  25  37 NW14G24   30.38S
LATROBE        SUNNY     48  25  40 NW12G23   30.38S
WASHINGTON CO* FAIR      50  23  34 VRB3G22   30.42R
$$

PAZ004>006-010>012-017>019-024>028-033>037-041-042-045-046-049>053-202000-
CENTRAL PENNSYLVANIA

CITY           SKY/WX    TMP DP  RH WIND       PRES   REMARKS
BRADFORD       FAIR      42  25  50 NW16G22   30.31R
DUBOIS         FAIR      47  24  40 NW18G26   30.31R
CLEARFIELD     FAIR      50  24  36 N16G24    30.30S
JOHNSTOWN      FAIR      45  26  47 NW14G28   30.30R
ALTOONA        FAIR      51  26  37 NW18G29   30.30S
STATE COLLEGE  SUNNY     50  23  34 NW8G23    30.27S
WILLIAMSPORT   FAIR      49  22  34 N15G23    30.29S
SELINSGROVE    FAIR      50  28  42 N9G23     30.28S
FT INDIANTOWN  MOSUNNY   52  24  33 W10G25    30.25F
CAPITAL CITY   FAIR      55  25  31 N13G22    30.26F
HARRISBURG     FAIR      54  26  34 NW14      30.25F
YORK           FAIR      53  28  38 N14G25    30.26F
$$

PAZ038>040-043-044-047-048-054-055-060>062-067>071-202000-
EASTERN PENNSYLVANIA

CITY           SKY/WX    TMP DP  RH WIND       PRES   REMARKS
SCRANTON       CLOUDY    42  25  50 NW18G25   30.27S
MOUNT POCONO   FAIR      37  24  59 W18G31    30.19R
ALLENTOWN      FAIR      51  25  36 NW14G21   30.24S
QUAKERTOWN*    CLEAR     50  27  40 NW16      30.23F
READING        FAIR      50  28  42 NW13G22   30.25S
LANCASTER      FAIR      52  30  43 N17G24    30.25S
COATESVILLE    FAIR      50  25  37 NW21      30.25S
POTTSTOWN      FAIR      50  26  39 NW10G20   30.25F
BLUE BELL      FAIR      48  30  49 W8G20     30.24F
DOYLESTOWN     FAIR      51  25  36 NW16G26   30.21F
WILLOW GROVE   NOT AVBL
NORTH PHILA    FAIR      54  26  34 NW17G31   30.23F
PHILADELPHIA   FAIR      52  24  33 NW15G24   30.24F
$$



USA.gov is the U.S. government's official web portal to all federal, state and local government web resources and services.